Regional Weather Roundup
Issued by NWS

Home | Current Version | Previous Version | Text Only | Print | Product List | Glossary On
Versions: 1 2 3 4 5 6 7 8 9 10 11 12 13 14 15 16 17 18 19 20 21 22 23 24 25 26 27 28 29 30 31 32 33 34 35 36 37 38 39 40 41 42 43 44 45 46 47 48 49 50
000
ASUS43 KOAX 171210
RWRNE

WEATHER ROUNDUP FOR NEBRASKA
NATIONAL WEATHER SERVICE OMAHA NE
700 AM CDT TUE OCT 17 2017

NOTES: SATELLITE DATA IS BEING USED TO AUGMENT CLOUD COVER ABOVE
       12000 FEET.
       "FAIR" INDICATES FEW OR NO CLOUDS BELOW 12,000 FEET WITH NO
       SIGNIFICANT WEATHER AND/OR OBSTRUCTIONS TO VISIBILITY.


NEZ001>004-019>022-054>056-171300-
NEBRASKA PANHANDLE

CITY           SKY/WX    TMP DP  RH WIND       PRES   REMARKS
SCOTTSBLUFF    CLOUDY    28  23  81 N6        30.17S WCI  22
6HR MIN TEMP:  27; 6HR MAX TEMP:  36;

ALLIANCE       CLOUDY    28  23  81 SW5       30.15R WCI  23
6HR MIN TEMP:  25; 6HR MAX TEMP:  34;

CHADRON        CLOUDY    31  24  75 W3        30.12S
6HR MIN TEMP:  30; 6HR MAX TEMP:  40;

GORDON         FAIR      30  26  83 CALM      30.12S
6HR MIN TEMP:  29; 6HR MAX TEMP:  40;

KIMBALL        CLOUDY    37  20  51 W9        30.21S WCI  30
SIDNEY         CLOUDY    33  23  66 NW13      30.19F WCI  24
6HR MIN TEMP:  30; 6HR MAX TEMP:  39;

$$

NEZ057>060-069>072-079>082-171300-
SOUTHWEST NEBRASKA

CITY           SKY/WX    TMP DP  RH WIND       PRES   REMARKS
NORTH PLATTE   CLEAR     33  30  88 NW6       30.15S WCI  28
6HR MIN TEMP:  31; 6HR MAX TEMP:  41;

IMPERIAL       CLOUDY    37  28  70 W6        30.18R WCI  32
6HR MIN TEMP:  34; 6HR MAX TEMP:  48;

LEXINGTON      CLEAR     38  34  85 W8        30.12S WCI  32
MCCOOK         CLEAR     38  33  82 W7        30.15R WCI  33
6HR MIN TEMP:  37; 6HR MAX TEMP:  52;

OGALLALA       CLOUDY    32  30  92 W5        30.18S WCI  28
$$

NEZ005>010-023>029-035>040-094-171300-
NORTH CENTRAL NEBRASKA

CITY           SKY/WX    TMP DP  RH WIND       PRES   REMARKS
VALENTINE      CLEAR     41  32  70 W9        30.10S
6HR MIN TEMP:  33; 6HR MAX TEMP:  41;

AINSWORTH      CLEAR     40  33  75 SW3       30.10S
BROKEN BOW     CLEAR     39  34  82 CALM      30.11R
6HR MIN TEMP:  38; 6HR MAX TEMP:  49;

O`NEILL        CLEAR     44  38  82 W6        30.08S
ORD            CLEAR     37  33  85 CALM      30.09R
6HR MIN TEMP:  36; 6HR MAX TEMP:  43;

THEDFORD       CLEAR     36  31  82 W3        30.14S
$$

NEZ041-046>049-061>064-073>077-083>087-171300-
SOUTH CENTRAL NEBRASKA

CITY           SKY/WX    TMP DP  RH WIND       PRES   REMARKS
GRAND ISLAND   CLEAR     42  38  85 W5        30.09S
6HR MIN TEMP:  42; 6HR MAX TEMP:  55;

AURORA         CLEAR     42  37  84 SW6       30.09R
HASTINGS       CLEAR     43  36  76 SW5       30.10S
6HR MIN TEMP:  40; 6HR MAX TEMP:  54;

HEBRON         CLEAR     47  39  75 SW3       30.11S
HOLDREGE       CLEAR     41  36  80 NW5       30.10R
KEARNEY        CLEAR     42  35  76 NW9       30.10S
YORK           CLEAR     43  39  87 CALM      30.09S
$$

NEZ011>018-030>034-042>045-171300-
NORTHEAST NEBRASKA

CITY           SKY/WX    TMP DP  RH WIND       PRES   REMARKS
NORFOLK        CLEAR     35  34  96 W3        30.06S
6HR MIN TEMP:  35; 6HR MAX TEMP:  54;

ALBION         CLEAR     36  34  93 NW3       30.08S
BLAIR          CLEAR     46  41  82 S8        30.09F
COLUMBUS       CLEAR     43  38  82 S3        30.09S
FREMONT        CLEAR     46  40  78 CALM      30.10S
TEKAMAH        CLEAR     43  39  86 SE5       30.09S
6HR MIN TEMP:  42; 6HR MAX TEMP:  56;

WAYNE          CLEAR     37  34  92 CALM      30.07R
$$

NEZ050>053-065>068-078-088>093-171300-
SOUTHEAST NEBRASKA

CITY           SKY/WX    TMP DP  RH WIND       PRES   REMARKS
LINCOLN        CLEAR     46  39  76 S5        30.12R
6HR MIN TEMP:  46; 6HR MAX TEMP:  57;

OMAHA EPPLEY   CLEAR     48  41  76 S9        30.11F
6HR MIN TEMP:  46; 6HR MAX TEMP:  52;

BEATRICE       CLEAR     48  41  78 S6        30.12S
FALLS CITY     CLEAR     49  40  71 S10       30.14S
6HR MIN TEMP:  46; 6HR MAX TEMP:  51;

NEBRASKA CITY  CLEAR     46  42  87 SW5       30.13R
PLATTSMOUTH    CLEAR     46  41  85 SE6       30.13R
$$

NEZ044-045-051>053-067-171300-
OMAHA AREA

CITY           SKY/WX    TMP DP  RH WIND       PRES   REMARKS
OMAHA EPPLEY   CLEAR     48  41  76 S9        30.11F
6HR MIN TEMP:  46; 6HR MAX TEMP:  52;

BLAIR          CLEAR     46  41  82 S8        30.09F
FREMONT        CLEAR     46  40  78 CALM      30.10S
MILLARD        CLEAR     46  42  84 SE7       30.11S
OFFUTT AFB     CLEAR     40  38  91 E5        30.11S
PLATTSMOUTH    CLEAR     46  41  85 SE6       30.13R
WAHOO          FAIR      44  38  81 S6        30.10S
$$




USA.gov is the U.S. government's official web portal to all federal, state and local government web resources and services.